FW2775 Weather Reports


time (UTC)temp
C
wind
direction
speed
KPH
gust
KPH
rain 1hr
cm
rain 24hr
cm
rain mn
cm
humidity
%
barometer
mb
20260508145516 16 315 4.8 14.5 0.00 0.43 0.03 51 1019.7
20260508144516 16 1 6.4 14.5 0.00 0.43 0.03 48 1019.7
20260508143516 16 23 6.4 14.5 0.00 0.43 0.03 48 1019.7
20260508141536 16 76 3.2 6.4 0.00 0.46 0.03 50 1019.8
20260508140536 15 353 0.0 9.7 0.00 0.48 0.03 52 1019.8
20260508135516 15 13 4.8 9.7 0.00 0.48 0.03 54 1019.7
20260508134536 15 36 4.8 9.7 0.00 0.48 0.03 56 1019.7
20260508133536 15 43 4.8 11.3 0.00 0.48 0.03 59 1019.7
20260508132536 14 21 3.2 6.4 0.00 0.48 0.03 68 1019.6
20260508131556 13 316 3.2 6.4 0.00 0.51 0.03 67 1019.7
20260508130536 13 9 4.8 16.1 0.00 0.51 0.03 65 1019.5
20260508125516 13 35 4.8 9.7 0.00 0.51 0.03 69 1019.4
20260508124516 13 11 3.2 8.0 0.00 0.53 0.03 70 1019.2
20260508123536 13 7 1.6 6.4 0.00 0.58 0.03 73 1019.1
20260508122556 13 14 3.2 6.4 0.00 0.61 0.03 74 1019.0
20260508115536 11 342 3.2 6.4 0.00 1.02 0.03 82 1018.8
20260508114516 11 350 3.2 6.4 0.00 1.04 0.03 82 1018.7
20260508113516 11 357 1.6 6.4 0.00 1.07 0.03 82 1018.5
20260508112516 11 357 3.2 6.4 0.00 1.09 0.03 83 1018.4
20260508111536 11 359 1.6 3.2 0.00 1.12 0.03 83 1018.2
20260508110516 10 358 3.2 6.4 0.00 1.12 0.03 82 1018.1
20260508105516 10 359 4.8 8.0 0.00 1.12 0.03 82 1017.9
20260508104517 10 345 3.2 9.7 0.00 1.12 0.03 82 1017.8
20260508103515 10 341 3.2 6.4 0.00 1.12 0.03 84 1017.5
20260508102556 10 322 1.6 4.8 0.00 1.12 0.03 85 1017.3
20260508101516 10 322 1.6 3.2 0.00 1.12 0.03 86 1017.4
20260508100536 10 321 0.0 4.8 0.00 1.12 0.03 86 1017.5
20260508095536 10 0.0 1.6 0.00 1.12 0.03 87 1017.5
20260508094536 10 342 1.6 3.2 0.00 1.12 0.03 87 1017.4
20260508092536 10 358 1.6 4.8 0.00 1.14 0.03 87 1017.3
20260508091556 10 359 0.0 1.6 0.00 1.14 0.03 87 1017.3
20260508090515 10 1 0.0 3.2 0.03 1.14 0.03 87 1017.2
20260508085515 11 3 0.0 1.6 0.03 1.17 0.03 87 1017.2
20260508084515 11 4 0.0 3.2 0.03 1.17 0.03 87 1017.2
20260508083556 11 5 0.0 1.6 0.03 1.19 0.03 87 1017.0
20260508082536 11 5 0.0 3.2 0.03 1.19 0.03 87 1016.9
20260508081536 11 5 1.6 3.2 0.03 1.22 0.03 87 1016.9
20260508080535 11 4 0.0 1.6 0.00 1.22 0.00 87 1016.7
20260508075555 11 0.0 0.0 0.00 1.24 0.00 86 1016.5
20260508074515 11 4 0.0 1.6 0.00 1.30 0.00 87 1016.5
20260508073515 11 0.0 0.0 0.00 1.32 0.00 87 1016.3
20260508072515 11 0.0 0.0 0.00 1.35 0.00 87 1016.3
20260508071516 11 0.0 0.0 0.00 1.40 0.00 87 1016.4
20260508065535 11 0.0 0.0 0.00 1.57 0.00 87 1016.2
20260508064535 11 0.0 0.0 0.00 1.65 0.00 87 1016.2
20260508063515 11 0.0 0.0 0.00 1.88 0.00 87 1016.2
20260508061535 11 0.0 0.0 0.00 2.01 0.00 87 1016.3
20260508060535 11 0.0 0.0 0.00 2.11 0.00 87 1016.3
20260508055515 12 0.0 0.0 0.00 2.24 0.00 87 1016.3
20260508054535 12 0.0 0.0 0.00 2.41 0.00 87 1016.2
20260508053535 12 0.0 0.0 0.00 2.44 0.00 87 1016.1
20260508052535 12 0.0 0.0 0.00 2.44 0.00 87 1016.1
20260508051515 12 0.0 0.0 0.00 2.46 0.00 87 1016.0
20260508050535 12 0.0 0.0 0.00 2.46 0.00 87 1015.8
20260508045515 12 0.0 0.0 0.00 2.46 0.00 87 1015.9
20260508044515 12 0.0 0.0 0.00 2.46 0.00 87 1015.9
20260508043515 12 0.0 0.0 0.00 2.46 0.00 87 1015.6
20260508042515 12 0.0 0.0 0.00 2.46 0.00 87 1015.6
20260508041555 13 4 0.0 3.2 0.00 2.46 0.00 86 1015.4
20260508040537 13 0.0 1.6 0.00 2.46 0.00 86 1015.5
20260508035536 13 4 0.0 1.6 0.00 2.46 2.46 86 1015.4
20260508034636 13 0.0 0.0 0.00 2.46 2.46 87 1015.5
20260508033516 13 0.0 0.0 0.00 2.49 2.46 87 1015.4
20260508032516 13 4 0.0 1.6 0.00 2.49 2.46 87 1015.5
20260508031516 13 4 0.0 3.2 0.00 2.51 2.46 87 1015.4
20260508030556 13 4 0.0 1.6 0.00 2.59 2.46 86 1015.4
20260508025516 13 4 0.0 1.6 0.00 2.82 2.46 87 1015.4
20260508024516 13 4 1.6 3.2 0.00 2.95 2.46 86 1015.2
20260508023516 13 4 1.6 4.8 0.00 3.05 2.46 86 1015.0
20260508022536 13 4 3.2 4.8 0.00 3.15 2.46 86 1015.0
20260508021536 13 4 3.2 4.8 0.00 3.17 2.46 86 1014.7
20260508020535 13 4 3.2 8.0 0.00 3.25 2.46 86 1014.4
20260508015556 13 12 0.0 3.2 0.00 3.33 2.46 86 1014.4
20260508014516 13 12 1.6 3.2 0.00 3.71 2.46 86 1014.2
20260508013535 13 10 4.8 6.4 0.00 3.78 2.46 86 1013.9
20260508012556 13 5 6.4 11.3 0.00 3.78 2.46 86 1013.9
20260508011536 13 13 4.8 6.4 0.00 3.78 2.46 86 1013.8
20260508010515 13 17 8.0 12.9 0.00 3.81 2.46 86 1013.8
20260508005536 13 335 8.0 12.9 0.00 3.91 2.46 86 1013.7
20260508004536 13 20 3.2 11.3 0.00 4.04 2.46 86 1013.4
20260508003515 13 26 4.8 8.0 0.00 4.09 2.46 86 1013.0
20260508002556 13 14 8.0 14.5 0.03 4.09 2.46 86 1012.6
20260508001535 13 4 3.2 14.5 0.08 4.09 2.46 86 1012.4
20260508000555 13 350 6.4 14.5 0.38 4.09 2.46 86 1011.9
20260507235535 13 324 4.8 19.3 0.38 4.09 2.46 86 1011.6
20260507234515 13 349 8.0 20.9 0.38 4.09 2.46 86 1011.2
20260507233535 13 338 3.2 16.1 0.38 4.09 2.46 86 1011.2
20260507232515 13 0 8.0 22.5 0.36 4.06 2.44 85 1010.9
20260507231515 14 354 3.2 17.7 0.30 4.01 2.39 85 1011.4
20260507230516 15 343 12.9 24.1 0.00 3.71 2.08 83 1010.8
20260507225515 15 17 11.3 27.4 0.00 3.71 2.08 82 1010.4
20260507224516 16 0 16.1 29.0 0.00 3.71 2.08 82 1010.3
20260507223515 16 341 8.0 27.4 0.00 3.71 2.08 82 1010.2
20260507222535 17 349 19.3 33.8 0.00 3.71 2.08 80 1010.2
20260507221535 18 351 19.3 38.6 0.00 3.71 2.08 76 1010.1
20260507220555 23 325 12.9 22.5 0.00 3.71 2.08 66 1009.9
20260507215535 23 203 6.4 12.9 0.00 3.71 2.08 65 1009.2
20260507214515 23 214 4.8 11.3 0.00 3.71 2.08 66 1009.2
20260507213515 23 183 6.4 19.3 0.00 3.71 2.08 64 1008.9
20260507212515 24 257 0.0 9.7 0.00 3.71 2.08 61 1008.7
20260507211515 23 185 4.8 19.3 0.00 3.71 2.08 64 1008.9
20260507210555 23 232 0.0 8.0 0.00 3.71 2.08 64 1008.7
20260507205515 23 223 3.2 6.4 0.00 3.71 2.08 63 1009.0
20260507204535 23 225 1.6 20.9 0.00 3.71 2.08 61 1009.1
20260507203515 23 241 4.8 11.3 0.00 3.71 2.08 61 1009.2
20260507202515 23 236 3.2 6.4 0.00 3.71 2.08 61 1009.2
20260507201515 23 244 4.8 11.3 0.00 3.71 2.08 62 1009.2
20260507200517 23 272 3.2 11.3 0.00 3.71 2.08 62 1009.4
20260507195515 22 240 1.6 8.0 0.00 3.71 2.08 66 1009.3
20260507194557 22 214 1.6 4.8 0.00 3.71 2.08 66 1009.7
20260507193557 22 251 1.6 8.0 0.00 3.71 2.08 67 1009.8
20260507192537 22 214 1.6 8.0 0.00 3.71 2.08 68 1009.9
20260507191517 23 227 3.2 8.0 0.00 3.71 2.08 65 1010.1
20260507190537 22 218 0.0 4.8 0.00 3.71 2.08 69 1010.3
20260507184517 22 251 1.6 8.0 0.00 3.71 2.08 70 1010.1
20260507183517 22 276 3.2 6.4 0.00 3.71 2.08 74 1010.1
20260507182657 21 266 1.6 4.8 0.00 3.71 2.08 78 1010.1
20260507181537 21 268 3.2 6.4 0.00 3.71 2.08 76 1010.0
20260507180516 21 269 3.2 6.4 0.00 3.73 2.08 80 1010.0
20260507175517 20 238 1.6 6.4 0.00 3.86 2.08 83 1010.4
20260507174517 20 272 3.2 8.0 0.00 3.86 2.08 84 1010.4
20260507173517 19 236 0.0 4.8 0.00 3.86 2.08 85 1010.7
20260507171517 18 227 0.0 1.6 0.00 3.86 2.08 86 1010.3
20260507170517 18 244 1.6 8.0 0.00 3.86 2.08 86 1010.7
20260507165517 18 246 1.6 8.0 0.00 3.86 2.08 86 1010.6
20260507164516 18 200 1.6 4.8 0.00 3.86 2.08 86 1010.6
20260507163517 18 215 0.0 3.2 0.00 3.86 2.08 86 1010.9
20260507162556 17 291 3.2 12.9 0.00 3.86 2.08 86 1011.5
20260507161538 18 250 1.6 4.8 0.00 3.86 2.08 86 1011.4
20260507160516 18 261 3.2 9.7 0.00 3.86 2.08 85 1011.2
20260507155516 18 281 1.6 8.0 0.03 3.86 2.08 85 1010.8
20260507154537 17 0.0 0.0 0.03 3.86 2.08 85 1010.1
20260507153516 18 0.0 0.0 0.03 3.86 2.08 85 1010.0
20260507152516 17 192 0.0 3.2 0.05 3.86 2.08 85 1009.8
20260507151536 17 193 0.0 3.2 0.05 3.86 2.08 85 1010.0
20260507150516 17 0.0 0.0 0.08 3.86 2.08 85 1010.1